M I D A S
Marine Information and Data Acquisition System
Tripno 366 of the Zeeleeuw from 2002-11-27 07:43:24 to 2002-11-27 13:54:14
Back to CruiseResearch ActivitiesStationsMapUnderway DataData graphs

EquipmentUnitsComment
TimeDGPSUTC
LatitudeDGPSDM.mWGS84
LongitudeDGPSDM.mWGS84
TemperatureSBE03/SBE38deg celciusITS90
ConductivitySBE21S/mITS90
SalinitySBE21 Practical Salinity Units
ChlorophylAChelsea fluorimeterg/lCalibrated in Aceton
Missing or incorrect values are displayed as -999
Sea surface data collected by the RV Zeeleeuw from 2002-11-27 07:43:24 to 2002-11-27 13:54:14
Time Latitude Longitude Temperature Conductivity Salinity ChlorophylA
2002-11-27 07:44:28 51°13.597 2°56.095 15.964609 0.066846 0.352273  
2002-11-27 07:45:28 51°13.608 2°56.054 27.380576 0.066846 0.352268  
2002-11-27 07:46:30 51°13.618 2°56.024 26.055456 0.066846 0.352284  
2002-11-27 07:47:30 51°13.643 2°55.952 25.381566 0.066846 0.352295  
2002-11-27 07:48:30 51°13.673 2°55.862 26.516543 0.066846 0.352295  
2002-11-27 07:49:30 51°13.686 2°55.768 26.035515 0.066846 0.352295  
2002-11-27 07:50:29 51°13.688 2°55.725 26.329437 0.066742 0.351741  
2002-11-27 07:51:28 51°13.723 2°55.726 26.041803 0.066846 0.352311  
2002-11-27 07:52:28 51°13.804 2°55.659 25.900881 0.066846 0.352311  
2002-11-27 07:53:28 51°13.925 2°55.587 25.727711 0.066846 0.352333  
2002-11-27 07:54:29 51°14.061 2°55.502 26.174805 0.066846 0.352349  
2002-11-27 07:55:28 51°14.187 2°55.377 25.259415 0.066742 0.351784  
2002-11-27 07:56:29 51°14.303 2°55.196 25.576075 0.066742 0.35179  
2002-11-27 07:57:28 51°14.423 2°55.003 24.648726 0.066846 0.35236  
2002-11-27 07:58:28 51°14.599 2°54.841 25.265281 0.066742 0.351806  
2002-11-27 07:59:28 51°14.788 2°54.67 25.065644 0.066742 0.351811  
2002-11-27 08:00:28 51°14.984 2°54.496 25.703232 0.066742 0.351817  
2002-11-27 08:01:28 51°15.181 2°54.32 25.33838 0.066742 0.351817  
2002-11-27 08:02:28 51°15.382 2°54.14 25.40116 0.066742 0.351822  
2002-11-27 08:03:28 51°15.583 2°53.955 24.404411 0.066742 0.351822  
2002-11-27 08:04:28 51°15.788 2°53.769 24.249809 0.066846 0.352392  
2002-11-27 08:05:28 51°15.988 2°53.576 24.653959 0.066742 0.351833  
2002-11-27 08:06:28 51°16.191 2°53.383 24.936392 0.066742 0.351844  
2002-11-27 08:07:28 51°16.392 2°53.189 24.379256 0.066742 0.351838  
2002-11-27 08:08:28 51°16.595 2°52.998 25.251028 0.066742 0.351849  
2002-11-27 08:09:28 51°16.796 2°52.807 24.448495 0.066742 0.351849  
2002-11-27 08:10:28 51°17 2°52.623 24.201712 0.066742 0.351854  
2002-11-27 08:11:28 51°17.207 2°52.441 25.132238 0.066742 0.35186  
2002-11-27 08:12:28 51°17.437 2°52.355 24.311057 0.066742 0.35186  
2002-11-27 08:13:28 51°17.676 2°52.351 24.169044 0.066742 0.351876  
2002-11-27 08:14:28 51°17.914 2°52.347 24.54323 0.066742 0.351865  
2002-11-27 08:15:28 51°18.143 2°52.443 23.702232 0.066742 0.351876  
2002-11-27 08:16:28 51°18.372 2°52.539 23.411088 0.066742 0.351887  
2002-11-27 08:17:28 51°18.6 2°52.644 23.714026 0.066742 0.351876  
2002-11-27 08:18:28 51°18.772 2°52.889 24.942586 0.066742 0.351887  
2002-11-27 08:19:28 51°18.888 2°53.208 24.179464 0.066742 0.351887  
2002-11-27 08:20:28 51°18.978 2°53.545 24.528608 0.066742 0.351887  
2002-11-27 08:21:29 51°19.052 2°53.898 24.447887 0.066742 0.351887  
2002-11-27 08:22:29 51°19.127 2°54.242 24.388124 0.066742 0.351892  
2002-11-27 08:23:29 51°19.202 2°54.587 23.423546 0.066742 0.351892  
2002-11-27 08:24:29 51°19.278 2°54.931 24.662982 0.066742 0.351887  
2002-11-27 08:25:29 51°19.355 2°55.274 23.851449 0.066742 0.351892  
2002-11-27 08:26:29 51°19.433 2°55.62 25.5055 0.066742 0.351898  
2002-11-27 08:27:29 51°19.506 2°55.964 24.409737 0.066742 0.351892  
2002-11-27 08:28:29 51°19.581 2°56.312 23.155084 0.066742 0.351887  
2002-11-27 08:29:29 51°19.657 2°56.661 23.602891 0.066742 0.351887  
2002-11-27 08:30:29 51°19.735 2°57.009 23.608853 0.066742 0.351887  
2002-11-27 08:31:29 51°19.81 2°57.36 23.431529 0.066742 0.351887  
2002-11-27 08:32:29 51°19.887 2°57.707 23.462565 0.066742 0.351887  
2002-11-27 08:33:29 51°19.962 2°58.056 23.671606 0.066742 0.351892  
2002-11-27 08:34:29 51°20.039 2°58.403 24.266927 0.066742 0.351881  
2002-11-27 08:35:29 51°20.113 2°58.752 24.102863 0.066742 0.351876  
2002-11-27 08:36:29 51°20.187 2°59.101 23.89269 0.066742 0.351881  
2002-11-27 08:37:29 51°20.26 2°59.448 24.240772 0.066742 0.351876  
2002-11-27 08:38:29 51°20.333 2°59.797 24.722596 0.066742 0.351876  
2002-11-27 08:39:29 51°20.407 3°0.144 24.482292 0.066742 0.35186  
2002-11-27 08:40:29 51°20.477 3°0.489 24.398018 0.066742 0.351849  
2002-11-27 08:41:29 51°20.551 3°0.83 24.999896 0.066846 0.352419  
2002-11-27 08:42:29 51°20.646 3°1.157 24.852681 0.066742 0.351844  
2002-11-27 08:43:29 51°20.737 3°1.487 24.058644 0.066846 0.352398  
2002-11-27 08:44:29 51°20.82 3°1.825 24.81811 0.066846 0.352392  
2002-11-27 08:45:29 51°20.901 3°2.161 24.230017 0.066846 0.352381  
2002-11-27 08:46:29 51°20.982 3°2.495 24.133116 0.066846 0.352376  
2002-11-27 08:47:29 51°21.062 3°2.829 24.027404 0.066846 0.352349  
2002-11-27 08:48:29 51°21.141 3°3.166 23.909854 0.066846 0.352344  
2002-11-27 08:49:29 51°21.216 3°3.506 23.141496 0.066846 0.352338  
2002-11-27 08:50:29 51°21.291 3°3.845 24.189883 0.066846 0.352317  
2002-11-27 08:51:29 51°21.365 3°4.187 24.657144 0.066846 0.352306  
2002-11-27 08:52:29 51°21.439 3°4.529 23.922533 0.066846 0.35229  
2002-11-27 08:53:29 51°21.509 3°4.871 23.996839 0.066846 0.352284  
2002-11-27 08:54:29 51°21.578 3°5.214 24.2901 0.066846 0.352263  
2002-11-27 08:55:29 51°21.648 3°5.556 24.671892 0.066846 0.352236  
2002-11-27 08:56:29 51°21.717 3°5.895 24.501217 0.066846 0.352209  
2002-11-27 08:57:29 51°21.782 3°6.24 24.416014 0.066846 0.352193  
2002-11-27 08:58:29 51°21.836 3°6.587 24.476286 0.066846 0.352155  
2002-11-27 08:59:29 51°21.892 3°6.933 24.671058 0.066846 0.352128  
2002-11-27 09:00:29 51°21.947 3°7.275 23.228249 0.066846 0.352085  
2002-11-27 09:01:29 51°21.992 3°7.621 23.657422 0.066846 0.352058  
2002-11-27 09:02:29 51°22.037 3°7.97 24.104544 0.066846 0.35202  
2002-11-27 09:03:29 51°22.085 3°8.315 24.396306 0.06695 0.352557  
2002-11-27 09:04:29 51°22.128 3°8.662 24.0012 0.06695 0.35253  
2002-11-27 09:05:29 51°22.172 3°9.006 24.385346 0.06695 0.352493  
2002-11-27 09:06:29 51°22.219 3°9.346 23.886636 0.06695 0.352471  
2002-11-27 09:07:29 51°22.265 3°9.687 24.308161 0.06695 0.352444  
2002-11-27 09:08:29 51°22.309 3°10.027 23.626739 0.06695 0.352412  
2002-11-27 09:09:29 51°22.352 3°10.367 24.012792 0.06695 0.352379  
2002-11-27 09:10:29 51°22.398 3°10.706 23.79714 0.06695 0.352336  
2002-11-27 09:11:29 51°22.439 3°11.042 24.189807 0.06695 0.352309  
2002-11-27 09:12:29 51°22.48 3°11.379 24.977815 0.06695 0.352261  
2002-11-27 09:13:29 51°22.524 3°11.714 23.733536 0.06695 0.352212  
2002-11-27 09:14:29 51°22.568 3°12.048 24.342404 0.06695 0.352175  
2002-11-27 09:15:29 51°22.612 3°12.381 24.16183 0.06695 0.352126  
2002-11-27 09:16:29 51°22.655 3°12.712 24.266851 0.06695 0.352083  
2002-11-27 09:17:29 51°22.7 3°13.043 24.807478 0.06695 0.35204  
2002-11-27 09:18:29 51°22.744 3°13.371 25.251141 0.067054 0.352555  
2002-11-27 09:19:29 51°22.789 3°13.7 24.357482 0.067054 0.352507  
2002-11-27 09:20:29 51°22.835 3°14.026 24.364106 0.067054 0.352458  
2002-11-27 09:21:29 51°22.877 3°14.356 24.533773 0.067054 0.35241  
2002-11-27 09:22:29 51°22.919 3°14.684 24.735247 0.067054 0.352356  
2002-11-27 09:23:29 51°22.964 3°15.008 24.466023 0.067054 0.352297  
2002-11-27 09:24:29 51°23.008 3°15.327 24.281716 0.067054 0.352232  
2002-11-27 09:25:29 51°23.052 3°15.644 25.646172 0.067054 0.352168  
2002-11-27 09:26:29 51°23.085 3°15.96 23.816168 0.067054 0.352114  
2002-11-27 09:27:29 51°23.119 3°16.277 24.634504 0.067054 0.352066  
2002-11-27 09:28:29 51°23.157 3°16.591 24.86134 0.067054 0.352002  
2002-11-27 09:29:29 51°23.214 3°16.899 26.036668 0.067158 0.352521  
2002-11-27 09:30:29 51°23.317 3°17.174 24.843945 0.067158 0.352483  
2002-11-27 09:31:29 51°23.515 3°17.312 24.711685 0.067158 0.352451  
2002-11-27 09:32:29 51°23.746 3°17.355 25.113099 0.067158 0.35243  
2002-11-27 09:33:29 51°23.979 3°17.406 24.477464 0.067158 0.352408  
2002-11-27 09:34:29 51°24.217 3°17.385 25.59966 0.067158 0.352381  
2002-11-27 09:35:29 51°24.455 3°17.264 24.964753 0.067158 0.352376  
2002-11-27 09:36:29 51°24.625 3°16.963 25.257986 0.067158 0.352371  
2002-11-27 09:37:29 51°24.683 3°16.563 23.508266 0.067158 0.352376  
2002-11-27 09:38:29 51°24.7 3°16.145 25.344878 0.067158 0.352381  
2002-11-27 09:39:29 51°24.723 3°15.73 24.682657 0.067158 0.352371  
2002-11-27 09:40:29 51°24.732 3°15.317 25.472586 0.067158 0.352365  
2002-11-27 09:41:29 51°24.736 3°14.902 24.438075 0.067158 0.352365  
2002-11-27 09:42:29 51°24.73 3°14.489 25.226804 0.067158 0.352365  
2002-11-27 09:43:29 51°24.71 3°14.078 24.543989 0.067158 0.352355  
2002-11-27 09:44:29 51°24.689 3°13.667 26.30679 0.067158 0.352349  
2002-11-27 09:45:29 51°24.669 3°13.254 25.491406 0.067158 0.352344  
2002-11-27 09:46:29 51°24.642 3°12.845 24.947194 0.067158 0.352344  
2002-11-27 09:47:29 51°24.602 3°12.439 24.984346 0.067158 0.352338  
2002-11-27 09:48:29 51°24.561 3°12.032 24.472105 0.067158 0.352344  
2002-11-27 09:49:29 51°24.518 3°11.628 25.612535 0.067158 0.352344  
2002-11-27 09:50:29 51°24.477 3°11.231 24.949309 0.067158 0.352338  
2002-11-27 09:51:29 51°24.432 3°10.84 25.568549 0.067158 0.352333  
2002-11-27 09:52:29 51°24.383 3°10.452 25.705138 0.067158 0.352333  
2002-11-27 09:53:29 51°24.337 3°10.063 25.37477 0.067158 0.352338  
2002-11-27 09:54:29 51°24.296 3°9.672 24.383557 0.067158 0.352328  
2002-11-27 09:55:29 51°24.268 3°9.281 25.571432 0.067158 0.352333  
2002-11-27 09:56:29 51°24.248 3°8.887 25.387122 0.067158 0.352322  
2002-11-27 09:57:29 51°24.227 3°8.496 25.373268 0.067158 0.352317  
2002-11-27 09:58:29 51°24.209 3°8.105 24.607722 0.067158 0.352317  
2002-11-27 09:59:29 51°24.221 3°7.713 24.645768 0.067158 0.352312  
2002-11-27 10:00:29 51°24.252 3°7.323 24.02683 0.067158 0.352301  
2002-11-27 10:01:29 51°24.282 3°6.931 24.723202 0.067158 0.352306  
2002-11-27 10:02:29 51°24.338 3°6.548 24.885648 0.067158 0.352317  
2002-11-27 10:03:29 51°24.419 3°6.172 24.140563 0.067158 0.352306  
2002-11-27 10:04:29 51°24.537 3°5.822 24.597173 0.067158 0.352306  
2002-11-27 10:05:29 51°24.704 3°5.534 24.69812 0.067158 0.352279  
2002-11-27 10:06:29 51°24.931 3°5.389 24.32896 0.067158 0.352301  
2002-11-27 10:07:29 51°25.172 3°5.342 24.76149 0.067158 0.35229  
2002-11-27 10:08:29 51°25.413 3°5.302 24.619293 0.067158 0.35229  
2002-11-27 10:09:29 51°25.653 3°5.266 25.283139 0.067158 0.35229  
2002-11-27 10:10:29 51°25.895 3°5.233 24.352076 0.067158 0.352285  
2002-11-27 10:11:29 51°26.137 3°5.202 24.972341 0.067158 0.352279  
2002-11-27 10:12:29 51°26.38 3°5.172 25.270658 0.067158 0.352269  
2002-11-27 10:13:29 51°26.622 3°5.147 24.309418 0.067158 0.352263  
2002-11-27 10:14:29 51°26.864 3°5.124 25.153933 0.067158 0.352253  
2002-11-27 10:15:29 51°27.105 3°5.103 25.996993 0.067158 0.352253  
2002-11-27 10:16:29 51°27.34 3°5.043 25.827632 0.067158 0.352237  
2002-11-27 10:17:29 51°27.572 3°4.948 23.918626 0.067262 0.352798  
2002-11-27 10:18:29 51°27.805 3°4.856 24.421873 0.067262 0.352793  
2002-11-27 10:19:29 51°28.033 3°4.729 24.890032 0.067262 0.352782  
2002-11-27 10:20:29 51°28.258 3°4.593 25.190942 0.067262 0.352777  
2002-11-27 10:21:29 51°28.485 3°4.461 24.795785 0.067262 0.352766  
2002-11-27 10:22:29 51°28.714 3°4.333 25.075975 0.067262 0.352766  
2002-11-27 10:23:29 51°28.939 3°4.206 25.05354 0.067262 0.352761  
2002-11-27 10:24:29 51°29.167 3°4.083 25.862475 0.067262 0.352745  
2002-11-27 10:25:29 51°29.396 3°3.96 24.917088 0.067262 0.35275  
2002-11-27 10:26:29 51°29.625 3°3.835 25.107484 0.067262 0.352739  
2002-11-27 10:27:29 51°29.855 3°3.719 25.463062 0.067262 0.352734  
2002-11-27 10:28:29 51°30.084 3°3.601 26.053931 0.067262 0.352729  
2002-11-27 10:29:29 51°30.315 3°3.489 24.868296 0.067262 0.352718  
2002-11-27 10:30:29 51°30.543 3°3.367 25.514382 0.067262 0.352713  
2002-11-27 10:31:29 51°30.769 3°3.243 24.819661 0.067262 0.352702  
2002-11-27 10:32:29 51°30.993 3°3.115 24.850865 0.067262 0.352702  
2002-11-27 10:33:29 51°31.216 3°2.981 25.05222 0.067262 0.352691  
2002-11-27 10:34:29 51°31.44 3°2.845 24.915048 0.067262 0.35268  
2002-11-27 10:35:29 51°31.665 3°2.705 25.3789 0.067262 0.352664  
2002-11-27 10:36:29 51°31.891 3°2.565 26.178259 0.067262 0.352659  
2002-11-27 10:37:29 51°32.115 3°2.424 26.578991 0.067262 0.352648  
2002-11-27 10:38:29 51°32.337 3°2.285 25.036606 0.067262 0.352632  
2002-11-27 10:39:29 51°32.559 3°2.144 25.944706 0.067262 0.352632  
2002-11-27 10:40:29 51°32.782 3°2.008 24.501027 0.067262 0.352616  
2002-11-27 10:41:29 51°33.003 3°1.868 25.828863 0.067262 0.352611  
2002-11-27 10:42:29 51°33.224 3°1.732 24.83222 0.067262 0.352611  
2002-11-27 10:43:29 51°33.445 3°1.592 25.602168 0.067262 0.352589  
2002-11-27 10:44:29 51°33.668 3°1.458 24.319057 0.067262 0.352584  
2002-11-27 10:45:29 51°33.887 3°1.315 25.846249 0.067262 0.352573  
2002-11-27 10:46:29 51°34.11 3°1.176 25.342136 0.067262 0.352573  
2002-11-27 10:47:29 51°34.331 3°1.031 25.95495 0.067262 0.352568  
2002-11-27 10:48:29 51°34.553 3°0.89 25.022498 0.067366 0.353108  
2002-11-27 10:49:29 51°34.773 3°0.748 26.007454 0.067262 0.352536  
2002-11-27 10:50:29 51°34.98 3°0.561 25.600933 0.067262 0.35253  
2002-11-27 10:51:29 51°35.044 3°0.227 25.558251 0.067262 0.352536  
2002-11-27 10:52:29 51°34.933 2°59.906 25.581467 0.067366 0.35307  
2002-11-27 10:53:29 51°34.812 2°59.586 26.419329 0.067262 0.352536  
2002-11-27 10:54:29 51°34.705 2°59.254 25.566714 0.067366 0.353065  
2002-11-27 10:55:29 51°34.6 2°58.919 25.119203 0.067366 0.35307  
2002-11-27 10:56:29 51°34.502 2°58.574 25.806322 0.067366 0.353043  
2002-11-27 10:57:29 51°34.41 2°58.227 25.966124 0.067366 0.353038  
2002-11-27 10:58:29 51°34.316 2°57.883 25.120974 0.067366 0.353017  
2002-11-27 10:59:29 51°34.219 2°57.533 26.107702 0.067366 0.353017  
2002-11-27 11:00:29 51°34.123 2°57.185 25.87247 0.067366 0.353  
2002-11-27 11:01:29 51°34.027 2°56.836 25.825094 0.067366 0.35299  
2002-11-27 11:02:29 51°33.93 2°56.488 26.153893 0.067366 0.352995  
2002-11-27 11:03:29 51°33.832 2°56.14 25.805912 0.067366 0.35299  
2002-11-27 11:04:29 51°33.714 2°55.82 26.01099 0.067366 0.353  
2002-11-27 11:05:29 51°33.501 2°55.781 25.629 0.067366 0.352941  
2002-11-27 11:06:29 51°33.3 2°55.929 26.990381 0.067366 0.352925  
2002-11-27 11:07:29 51°33.104 2°56.11 24.703084 0.067366 0.352941  
2002-11-27 11:08:29 51°32.912 2°56.3 25.621928 0.067366 0.352947  
2002-11-27 11:09:29 51°32.733 2°56.517 26.276866 0.067366 0.352931  
2002-11-27 11:10:29 51°32.547 2°56.72 26.291403 0.067366 0.352909  
2002-11-27 11:11:29 51°32.36 2°56.925 25.588056 0.067366 0.352888  
2002-11-27 11:12:29 51°32.174 2°57.128 25.254639 0.067366 0.352899  
2002-11-27 11:13:29 51°31.988 2°57.33 25.228685 0.067366 0.352888  
2002-11-27 11:14:29 51°31.801 2°57.532 24.728126 0.067366 0.35285  
2002-11-27 11:15:29 51°31.611 2°57.728 26.089151 0.067366 0.352834  
2002-11-27 11:16:29 51°31.415 2°57.618 24.843378 0.067366 0.35285  
2002-11-27 11:17:29 51°31.298 2°57.288 26.009948 0.067366 0.35285  
2002-11-27 11:18:29 51°31.165 2°56.966 25.558812 0.067366 0.352829  
2002-11-27 11:19:29 51°31.043 2°56.635 25.320459 0.067366 0.352824  
2002-11-27 11:20:29 51°30.922 2°56.301 26.03771 0.067366 0.352802  
2002-11-27 11:21:29 51°30.809 2°55.957 26.795818 0.067366 0.352786  
2002-11-27 11:22:29 51°30.691 2°55.619 27.105334 0.067366 0.35277  
2002-11-27 11:23:29 51°30.574 2°55.28 26.427213 0.067366 0.352765  
2002-11-27 11:24:29 51°30.457 2°54.942 25.886901 0.067366 0.352759  
2002-11-27 11:25:29 51°30.34 2°54.604 26.472243 0.067366 0.352738  
2002-11-27 11:26:29 51°30.221 2°54.267 25.844347 0.067366 0.352738  
2002-11-27 11:27:29 51°30.105 2°53.927 25.986755 0.067366 0.352722  
2002-11-27 11:28:29 51°29.987 2°53.589 25.198244 0.067366 0.352711  
2002-11-27 11:29:29 51°29.871 2°53.249 27.254192 0.067366 0.35269  
2002-11-27 11:30:29 51°29.782 2°52.896 26.995376 0.067366 0.352684  
2002-11-27 11:31:29 51°29.83 2°52.525 25.309713 0.067366 0.352668  
2002-11-27 11:32:29 51°30.004 2°52.28 26.427843 0.067366 0.352641  
2002-11-27 11:33:29 51°30.202 2°52.089 26.583571 0.067366 0.352636  
2002-11-27 11:34:29 51°30.419 2°51.961 26.691486 0.067366 0.352641  
2002-11-27 11:35:29 51°30.633 2°51.816 26.941255 0.067366 0.352625  
2002-11-27 11:36:29 51°30.845 2°51.67 25.398795 0.067366 0.352604  
2002-11-27 11:37:29 51°31.061 2°51.528 24.723277 0.067366 0.352588  
2002-11-27 11:38:29 51°31.279 2°51.389 25.163648 0.067366 0.352577  
2002-11-27 11:39:29 51°31.496 2°51.247 26.667141 0.067366 0.352556  
2002-11-27 11:40:29 51°31.709 2°51.103 24.685386 0.067366 0.35255  
2002-11-27 11:41:29 51°31.915 2°50.956 25.824385 0.067366 0.35254  
2002-11-27 11:42:29 51°32.062 2°50.696 25.07933 0.067366 0.352529  
2002-11-27 11:43:29 51°32.02 2°50.336 25.173663 0.067366 0.352508  
2002-11-27 11:44:29 51°31.895 2°50.011 25.735183 0.067366 0.352508  
2002-11-27 11:45:29 51°31.772 2°49.679 24.848407 0.067366 0.352497  
2002-11-27 11:46:29 51°31.647 2°49.346 25.134573 0.067366 0.352476  
2002-11-27 11:47:29 51°31.522 2°49.012 25.202685 0.067366 0.352481  
2002-11-27 11:48:29 51°31.397 2°48.677 26.846439 0.067469 0.353025  
2002-11-27 11:49:29 51°31.273 2°48.34 25.211453 0.067469 0.353004  
2002-11-27 11:50:29 51°31.149 2°48.002 25.864116 0.067469 0.352977  
2002-11-27 11:51:29 51°31.023 2°47.664 26.324693 0.067469 0.352983  
2002-11-27 11:52:29 51°30.902 2°47.322 26.08692 0.067469 0.35295  
2002-11-27 11:53:29 51°30.779 2°46.985 26.305158 0.067469 0.35294  
2002-11-27 11:54:29 51°30.655 2°46.643 26.496393 0.067469 0.352929  
2002-11-27 11:55:29 51°30.535 2°46.305 25.746092 0.067469 0.352908  
2002-11-27 11:56:29 51°30.41 2°45.975 27.082152 0.067469 0.352924  
2002-11-27 11:57:29 51°30.23 2°45.749 26.542563 0.067469 0.352908  
2002-11-27 11:58:29 51°30.03 2°45.863 27.370198 0.067469 0.35287  
2002-11-27 11:59:29 51°29.862 2°46.102 27.318691 0.067469 0.35286  
2002-11-27 12:00:29 51°29.684 2°46.329 26.454375 0.067469 0.352838  
2002-11-27 12:01:29 51°29.498 2°46.543 26.696686 0.067469 0.352843  
2002-11-27 12:02:29 51°29.311 2°46.754 26.894304 0.067469 0.352801  
2002-11-27 12:03:29 51°29.125 2°46.964 26.808707 0.067469 0.352795  
2002-11-27 12:04:29 51°28.94 2°47.172 26.333032 0.067469 0.352779  
2002-11-27 12:05:29 51°28.75 2°47.38 27.460917 0.067469 0.352753  
2002-11-27 12:06:29 51°28.562 2°47.587 26.585196 0.067469 0.352747  
2002-11-27 12:07:29 51°28.369 2°47.792 27.507329 0.067469 0.352715  
2002-11-27 12:08:29 51°28.179 2°47.997 27.267147 0.067469 0.352715  
2002-11-27 12:09:29 51°27.988 2°48.198 26.975467 0.067469 0.352699  
2002-11-27 12:10:29 51°27.798 2°48.401 27.358467 0.067469 0.352688  
2002-11-27 12:11:29 51°27.606 2°48.6 27.118645 0.067469 0.352662  
2002-11-27 12:12:29 51°27.413 2°48.799 27.321397 0.067469 0.35264  
2002-11-27 12:13:29 51°27.22 2°48.996 26.673523 0.067469 0.352608  
2002-11-27 12:14:29 51°27.025 2°49.194 26.833005 0.067469 0.352608  
2002-11-27 12:15:29 51°26.831 2°49.392 27.627458 0.067469 0.352582  
2002-11-27 12:16:29 51°26.637 2°49.59 26.854867 0.067469 0.352566  
2002-11-27 12:17:29 51°26.439 2°49.787 26.445754 0.067573 0.353104  
2002-11-27 12:18:29 51°26.227 2°49.933 26.820931 0.067573 0.353088  
2002-11-27 12:19:29 51°26.031 2°49.746 27.38982 0.067573 0.353083  
2002-11-27 12:20:29 51°25.918 2°49.4 26.915007 0.067573 0.353067  
2002-11-27 12:21:29 51°25.817 2°49.037 26.495765 0.067573 0.35304  
2002-11-27 12:22:29 51°25.718 2°48.672 27.081528 0.067573 0.353013  
2002-11-27 12:23:29 51°25.619 2°48.309 26.14115 0.067573 0.353002  
2002-11-27 12:24:29 51°25.519 2°47.95 28.490494 0.067573 0.352981  
2002-11-27 12:25:29 51°25.418 2°47.592 27.661428 0.067573 0.352965  
2002-11-27 12:26:29 51°25.318 2°47.233 27.153984 0.067573 0.352949  
2002-11-27 12:27:29 51°25.249 2°46.86 27.561914 0.067573 0.352922  
2002-11-27 12:28:29 51°25.328 2°46.506 26.583645 0.067573 0.352912  
2002-11-27 12:29:29 51°25.501 2°46.261 27.070228 0.067573 0.352896  
2002-11-27 12:30:29 51°25.69 2°46.047 27.490913 0.067573 0.352885  
2002-11-27 12:31:29 51°25.878 2°45.834 26.756845 0.067573 0.352858  
2002-11-27 12:32:29 51°26.062 2°45.612 26.391785 0.067573 0.352842  
2002-11-27 12:33:29 51°26.242 2°45.378 26.918096 0.067573 0.352832  
2002-11-27 12:34:29 51°26.415 2°45.134 26.470098 0.067573 0.352816  
2002-11-27 12:35:29 51°26.584 2°44.88 27.229043 0.067677 0.353359  
2002-11-27 12:36:29 51°26.75 2°44.623 26.09101 0.067677 0.353343  
2002-11-27 12:37:29 51°26.907 2°44.35 25.965603 0.067677 0.353348  
2002-11-27 12:38:29 51°26.921 2°43.975 26.674076 0.067677 0.353311  
2002-11-27 12:39:29 51°26.866 2°43.595 27.487046 0.067677 0.353289  
2002-11-27 12:40:29 51°26.844 2°43.203 27.23274 0.067677 0.353257  
2002-11-27 12:41:29 51°26.774 2°42.833 27.413015 0.067677 0.353247  
2002-11-27 12:42:29 51°26.692 2°42.463 25.790644 0.067677 0.353225  
2002-11-27 12:43:29 51°26.616 2°42.089 27.808924 0.067677 0.353199  
2002-11-27 12:44:29 51°26.533 2°41.716 27.00992 0.067677 0.353199  
2002-11-27 12:45:29 51°26.388 2°41.422 27.19341 0.067677 0.353188  
2002-11-27 12:46:29 51°26.166 2°41.41 27.087141 0.067677 0.353156  
2002-11-27 12:47:29 51°25.95 2°41.548 27.398551 0.067781 0.353688  
2002-11-27 12:48:29 51°25.733 2°41.692 27.090809 0.067677 0.353124  
2002-11-27 12:49:29 51°25.516 2°41.833 27.04443 0.067677 0.353113  
2002-11-27 12:50:29 51°25.3 2°41.973 26.571271 0.067781 0.353656  
2002-11-27 12:51:29 51°25.083 2°42.114 26.700742 0.067781 0.353635  
2002-11-27 12:52:29 51°24.866 2°42.256 27.648104 0.067781 0.353608  
2002-11-27 12:53:29 51°24.65 2°42.401 26.472095 0.067781 0.353603  
2002-11-27 12:54:29 51°24.433 2°42.543 27.176484 0.067781 0.353576  
2002-11-27 12:55:29 51°24.218 2°42.689 27.121909 0.067781 0.353555  
2002-11-27 12:56:29 51°24.003 2°42.834 26.011846 0.067781 0.353528  
2002-11-27 12:57:29 51°23.789 2°42.98 26.668691 0.067781 0.353501  
2002-11-27 12:58:29 51°23.575 2°43.126 26.976936 0.067781 0.353485  
2002-11-27 12:59:29 51°23.363 2°43.273 27.281052 0.067781 0.353464  
2002-11-27 13:00:29 51°23.147 2°43.419 26.721942 0.067781 0.353448  
2002-11-27 13:01:29 51°22.933 2°43.566 25.7307 0.067781 0.353421  
2002-11-27 13:02:29 51°22.721 2°43.716 26.859429 0.067781 0.353384  
2002-11-27 13:03:29 51°22.508 2°43.868 26.744868 0.067781 0.353373  
2002-11-27 13:04:29 51°22.295 2°44.019 25.446222 0.067781 0.353347  
2002-11-27 13:05:29 51°22.083 2°44.179 26.735618 0.067885 0.353889  
2002-11-27 13:06:29 51°21.875 2°44.346 26.986047 0.067885 0.353857  
2002-11-27 13:07:29 51°21.667 2°44.513 26.087106 0.067885 0.353836  
2002-11-27 13:08:29 51°21.464 2°44.693 28.22778 0.067885 0.353814  
2002-11-27 13:09:29 51°21.263 2°44.878 26.683003 0.067885 0.353788  
2002-11-27 13:10:29 51°21.063 2°45.063 27.167507 0.067885 0.353761  
2002-11-27 13:11:29 51°20.87 2°45.262 27.555973 0.067885 0.35375  
2002-11-27 13:12:29 51°20.676 2°45.461 26.512366 0.067885 0.353724  
2002-11-27 13:13:29 51°20.494 2°45.681 27.297843 0.067885 0.353697  
2002-11-27 13:14:29 51°20.316 2°45.91 26.919199 0.067885 0.353649  
2002-11-27 13:15:29 51°20.152 2°46.159 27.133384 0.067885 0.35358  
2002-11-27 13:16:29 51°20.004 2°46.431 26.871792 0.067885 0.35351  
2002-11-27 13:17:29 51°19.859 2°46.71 26.695432 0.067885 0.353446  
2002-11-27 13:18:29 51°19.719 2°46.997 26.427991 0.067885 0.353393  
2002-11-27 13:19:29 51°19.583 2°47.284 26.167117 0.067989 0.353919  
2002-11-27 13:20:29 51°19.445 2°47.568 26.962424 0.067989 0.353871  
2002-11-27 13:21:29 51°19.307 2°47.851 26.911772 0.067989 0.353839  
2002-11-27 13:22:29 51°19.169 2°48.135 26.469136 0.067989 0.353802  
2002-11-27 13:23:29 51°19.033 2°48.422 26.432025 0.067989 0.353775  
2002-11-27 13:24:29 51°18.898 2°48.708 25.995653 0.067989 0.353754  
2002-11-27 13:25:29 51°18.769 2°49.003 27.365301 0.067989 0.353727  
2002-11-27 13:26:29 51°18.641 2°49.3 26.45715 0.067989 0.3537  
2002-11-27 13:27:29 51°18.511 2°49.597 26.898791 0.067989 0.353658  
2002-11-27 13:28:29 51°18.379 2°49.896 26.874772 0.067989 0.353653  
2002-11-27 13:29:29 51°18.246 2°50.193 27.300221 0.067989 0.353621  
2002-11-27 13:30:29 51°18.113 2°50.489 27.488286 0.067989 0.353589  
2002-11-27 13:31:29 51°17.979 2°50.785 27.964829 0.067989 0.353573  
2002-11-27 13:32:29 51°17.847 2°51.082 28.351697 0.067989 0.353535  
2002-11-27 13:33:29 51°17.716 2°51.376 27.295868 0.067989 0.353509  
2002-11-27 13:34:30 51°17.581 2°51.679 27.662302 0.068093 0.354045  
2002-11-27 13:35:29 51°17.446 2°51.971 27.396067 0.067989 0.353461  
2002-11-27 13:36:29 51°17.272 2°52.202 27.899255 0.068093 0.353997  
2002-11-27 13:37:30 51°17.059 2°52.37 28.1258 0.068093 0.353954  
2002-11-27 13:38:30 51°16.85 2°52.542 28.601362 0.068093 0.353928  
2002-11-27 13:39:29 51°16.644 2°52.711 28.361434 0.068093 0.353901  
2002-11-27 13:40:29 51°16.433 2°52.884 27.696874 0.068093 0.35388  
2002-11-27 13:41:29 51°16.226 2°53.057 27.370016 0.068093 0.353858  
2002-11-27 13:42:29 51°16.021 2°53.232 28.000168 0.068093 0.353821  
2002-11-27 13:43:29 51°15.823 2°53.418 27.436751 0.068093 0.353784  
2002-11-27 13:44:29 51°15.624 2°53.605 27.416923 0.068093 0.353741  
2002-11-27 13:45:30 51°15.428 2°53.806 28.285018 0.068093 0.353683  
2002-11-27 13:46:30 51°15.236 2°54.003 27.366471 0.068093 0.353598  
2002-11-27 13:47:30 51°15.058 2°54.183 27.849093 0.068093 0.353513  
2002-11-27 13:48:30 51°14.891 2°54.372 27.379224 0.068197 0.353979  
2002-11-27 13:49:30 51°14.734 2°54.585 26.785801 0.068197 0.353868  
2002-11-27 13:50:30 51°14.579 2°54.796 28.532458 0.068197 0.353799  
2002-11-27 13:51:29 51°14.429 2°55.006 27.036905 0.068197 0.353724  
2002-11-27 13:52:29 51°14.299 2°55.211 27.341908 0.068197 0.353682  
2002-11-27 13:53:29 51°14.22 2°55.329 27.674094 0.068197 0.353634